[[{"header":{"parameterUnit":"m.s-1","parameterCategory":1,"la1":30.2991,"la2":30.254,"lo1":-89.0895,"lo2":-89.0444,"dy":0.0017,"dx":0.0017,"nx":28,"ny":28,"refTime":"2024-07-23T21:00:00:Z","depth":0,"parameterNumber":2,"parameterNumberName":"U-component_of_WINDS"},"data":[0,0,0,0,0,0,0,0,0,0,0,0,0,0,0,0,0,0,0,0,0,0,0,0,0,0,0,0,0,0,0,0,0,0,0,0,0,0,0,0,0,0,0,0,0,0,0,0,0,0,0,0,0,0,0,0,0,0,0.2801,0.2802,0,0.2884,0.2885,0.2886,0.2971,0.2972,0.2973,0.2974,0.3058,0.3059,0.306,0,0,0,0,0,0,0,0,0,0,0,0,0,0.2714,0.2715,0.2801,0.2802,0.2803,0.2884,0.2885,0.2886,0.2971,0.2972,0.2973,0.2975,0.3057,0.3059,0.306,0,0,0,0,0,0,0,0,0,0,0,0,0,0.2769,0.2715,0.2801,0.2855,0.2861,0.2883,0.2885,0.2886,0.297,0.2972,0.2974,0.2975,0.3057,0.3059,0.306,0.3036,0,0,0.3066,0.3066,0,0,0,0,0,0,0,0,0.2766,0.2772,0.2846,0.2851,0.2858,0.2919,0.2885,0.2936,0.297,0.2929,0.2974,0.2976,0.301,0.3016,0.3027,0.304,0.3044,0.3066,0.3067,0.3067,0.3068,0,0,0,0,0,0,0,0.2762,0.2769,0.2834,0.2847,0.2854,0.2874,0.2884,0.2895,0.2958,0.2932,0.2939,0.2947,0.3014,0.3026,0.303,0.3045,0.3066,0.3067,0.3068,0.3069,0.304,0.3039,0,0,0,0,0,0,0.275,0.2766,0.2831,0.2836,0.2815,0.2874,0.2886,0.2897,0.2959,0.297,0.2946,0.2951,0.3022,0.3028,0.3033,0.3008,0.3067,0.3069,0.307,0.3042,0.304,0.3038,0,0,0,0,0,0,0.2748,0.2755,0.2828,0.2803,0.2813,0.2874,0.2887,0.2898,0.291,0.2969,0.298,0.2946,0.3023,0.3031,0.3035,0.3012,0.307,0.3071,0.3044,0.3041,0.3039,0.2958,0,0,0,0,0,0,0.2745,0.2754,0.2746,0.2802,0.2814,0.2828,0.2885,0.2898,0.2913,0.2921,0.2973,0.2983,0.3025,0.3031,0.3036,0.3016,0.3073,0.3046,0.3043,0.304,0.2963,0.2953,0.2944,0,0,0,0,0,0.2742,0.272,0.2745,0.2752,0.2806,0.2826,0.2834,0.2883,0.2911,0.2903,0.294,0.2981,0.3014,0.3031,0.3037,0.3017,0.3048,0.3044,0.304,0.2967,0.2955,0.2944,0,0,0,0,0,0,0.2659,0.2728,0.2757,0.2752,0.2783,0.2841,0.2832,0.2869,0.2892,0.2898,0.2958,0.2969,0.2966,0.2992,0.301,0.2996,0.3037,0.3034,0.2979,0.2968,0.2959,0.2952,0.3074,0,0,0,0,0,0.2641,0.2652,0.2712,0.2702,0.2716,0.2771,0.2782,0.2818,0.2851,0.2865,0.2903,0.2933,0.2951,0.2961,0.298,0.2967,0.2979,0.2956,0.2946,0.2938,0.2935,0.2929,0.2919,0.3025,0.3025,0.3025,0,0,0.2602,0.2641,0.2645,0.2686,0.2714,0.2724,0.2781,0.279,0.2798,0.2866,0.2872,0.29,0.2939,0.2933,0.2933,0.2955,0.2908,0.2933,0.2926,0.2927,0.2923,0.2913,0.2904,0.3022,0.3022,0.3023,0,0,0.2537,0.2568,0.2563,0.2589,0.2631,0.2668,0.2666,0.2718,0.274,0.2747,0.2798,0.2808,0.2836,0.2861,0.2878,0.282,0.2858,0.2825,0.2776,0.2769,0.2761,0.2754,0.2732,0.2724,0.2821,0.2821,0.2821,0,0.2484,0.2502,0.2555,0.2561,0.2577,0.2639,0.2634,0.2657,0.2702,0.2711,0.2735,0.2772,0.2802,0.2803,0.2789,0.2801,0.28,0.2819,0.2758,0.2751,0.2745,0.2725,0.2717,0.2817,0.2817,0.2818,0.2818,0,0.2433,0.2445,0.2436,0.2478,0.2493,0.2493,0.2546,0.2554,0.2588,0.2622,0.2627,0.2666,0.2693,0.2696,0.273,0.2701,0.2714,0.2747,0.2789,0.273,0.2712,0.2705,0.2811,0.2812,0.2813,0.2815,0,0,0.2319,0.2391,0.2386,0.2406,0.2455,0.2465,0.2467,0.2494,0.25,0.2529,0.2531,0.2553,0.2584,0.2602,0.2639,0.2633,0.2584,0.2667,0.2669,0.2649,0.2554,0.2528,0.2518,0.2609,0.2608,0.2607,0.255,0,0.2262,0.227,0.2318,0.2312,0.2322,0.2381,0.2383,0.2413,0.2444,0.2457,0.2492,0.2506,0.2546,0.2557,0.2554,0.259,0.2565,0.2595,0.2611,0.2611,0.2599,0.2509,0.2482,0.2426,0.2544,0.2543,0.2542,0,0.2197,0.2221,0.2216,0.2265,0.2271,0.2271,0.2299,0.2311,0.2346,0.2369,0.2389,0.243,0.2435,0.2474,0.248,0.25,0.2509,0.2527,0.2526,0.2529,0.2572,0.2509,0.241,0.2401,0.2532,0.2533,0.2533,0,0.2112,0.2144,0.2145,0.216,0.2217,0.2216,0.2239,0.2276,0.2289,0.2313,0.2322,0.2346,0.2359,0.2377,0.2422,0.2447,0.2423,0.2467,0.2441,0.244,0.2433,0.2433,0.2333,0.244,0.244,0.244,0.2441,0,0.2043,0.2037,0.2108,0.2108,0.2103,0.2158,0.215,0.218,0.2212,0.2218,0.227,0.2275,0.2336,0.2347,0.2383,0.2382,0.2387,0.2405,0.2415,0.24,0.2398,0.2407,0.2411,0.2438,0.2439,0.2439,0.2439,0,0.1948,0.1995,0.2,0.2053,0.2067,0.206,0.2106,0.2108,0.2142,0.2149,0.2154,0.2207,0.2223,0.2271,0.2299,0.2323,0.231,0.2329,0.2298,0.2304,0.2276,0.2277,0.2178,0.2167,0.2281,0.228,0.2279,0,0.1901,0.1897,0.195,0.1959,0.198,0.1992,0.2006,0.2059,0.2071,0.2109,0.2106,0.2126,0.2145,0.2167,0.2208,0.2229,0.2248,0.2212,0.2251,0.2236,0.2246,0.2245,0.2244,0.2203,0.2201,0.22,0.2199,0,0.1811,0.1834,0.1851,0.1876,0.1891,0.1913,0.1938,0.1941,0.2001,0.2011,0.2028,0.2042,0.207,0.2089,0.2116,0.214,0.2178,0.2186,0.2181,0.2166,0.2148,0.2156,0.2274,0.2188,0.2189,0.219,0.219,0.2191,0.1738,0.1737,0.1774,0.1791,0.1815,0.1837,0.1841,0.1876,0.1891,0.1918,0.1949,0.1962,0.1996,0.2036,0.2057,0.2067,0.2088,0.2081,0.2079,0.2076,0.2069,0.2146,0.2072,0.2073,0.2073,0.2074,0.2074,0,0.1649,0.1676,0.1691,0.1725,0.1737,0.1774,0.1803,0.1811,0.1822,0.185,0.1868,0.1886,0.1904,0.1946,0.1968,0.1967,0.1985,0.1971,0.1971,0.1976,0.205,0.2051,0.1956,0.1956,0.1956,0.1956,0.1956,0.1956,0.1605,0.1606,0.1633,0.1645,0.1672,0.1685,0.1699,0.1719,0.1742,0.176,0.1775,0.1803,0.1836,0.186,0.1878,0.189,0.1895,0.1874,0.1891,0.196,0.1971,0.1981,0.1983,0.1875,0.1875,0.1817,0.1816,0.1816]},{"header":{"parameterUnit":"m.s-1","parameterCategory":1,"la1":30.2991,"la2":30.254,"lo1":-89.0895,"lo2":-89.0444,"dy":0.0017,"dx":0.0017,"nx":28,"ny":28,"refTime":"2024-07-23T21:00:00:Z","depth":0,"parameterNumber":3,"parameterNumberName":"V-component_of_WINDS"},"data":[0,0,0,0,0,0,0,0,0,0,0,0,0,0,0,0,0,0,0,0,0,0,0,0,0,0,0,0,0,0,0,0,0,0,0,0,0,0,0,0,0,0,0,0,0,0,0,0,0,0,0,0,0,0,0,0,0,0,1.0745,1.0744,0,1.0727,1.0726,1.0726,1.0744,1.0744,1.0745,1.0746,1.0726,1.0725,1.0724,0,0,0,0,0,0,0,0,0,0,0,0,0,1.0792,1.0791,1.0745,1.0744,1.0744,1.0727,1.0726,1.0726,1.0743,1.0744,1.0745,1.0746,1.0727,1.0725,1.0724,0,0,0,0,0,0,0,0,0,0,0,0,0,1.0772,1.0791,1.0745,1.0751,1.0751,1.0727,1.0726,1.0726,1.0743,1.0744,1.0745,1.0746,1.0727,1.0726,1.0724,1.0693,0,0,1.0719,1.0718,0,0,0,0,0,0,0,0,1.0774,1.0771,1.075,1.075,1.0751,1.0738,1.0736,1.0715,1.0743,1.0746,1.0746,1.0747,1.073,1.0728,1.0722,1.0692,1.0691,1.0718,1.0717,1.0717,1.0716,0,0,0,0,0,0,0,1.0775,1.0772,1.0738,1.075,1.075,1.0754,1.0752,1.0732,1.0732,1.0746,1.0747,1.0745,1.073,1.0724,1.0722,1.0691,1.0719,1.0717,1.0716,1.0715,1.0631,1.0629,0,0,0,0,0,0,1.0776,1.0773,1.0738,1.0737,1.0765,1.0752,1.075,1.0741,1.0733,1.0732,1.0744,1.0746,1.0726,1.0724,1.0721,1.0682,1.0717,1.0715,1.0714,1.0632,1.063,1.0629,0,0,0,0,0,0,1.0777,1.0773,1.0739,1.0755,1.0751,1.075,1.074,1.074,1.0734,1.0731,1.0731,1.0738,1.0727,1.0724,1.0699,1.0681,1.0714,1.0713,1.0633,1.0631,1.063,1.0604,0,0,0,0,0,0,1.0778,1.0773,1.0761,1.0755,1.075,1.0717,1.0739,1.0739,1.0731,1.0733,1.0725,1.0725,1.0727,1.0701,1.0697,1.068,1.0711,1.0635,1.0632,1.063,1.0606,1.0601,1.0597,0,0,0,0,0,1.078,1.0755,1.0761,1.0757,1.0736,1.0716,1.0714,1.0717,1.073,1.0718,1.0715,1.0725,1.0684,1.0699,1.0694,1.0676,1.0636,1.0633,1.063,1.0608,1.0602,1.0597,0,0,0,0,0,0,1.076,1.0755,1.0761,1.0734,1.0725,1.0719,1.0705,1.0711,1.07,1.0702,1.0707,1.0705,1.0678,1.0675,1.0691,1.0643,1.0662,1.0658,1.0647,1.0641,1.0636,1.0637,1.071,0,0,0,0,0,1.0753,1.0738,1.0734,1.071,1.0706,1.0706,1.0697,1.0701,1.0692,1.0689,1.0685,1.0676,1.0661,1.0651,1.0637,1.0606,1.0603,1.0591,1.0587,1.0583,1.0579,1.056,1.0553,1.062,1.062,1.062,0,0,1.0738,1.0732,1.0723,1.0706,1.07,1.0683,1.0703,1.0685,1.0672,1.0686,1.0662,1.0659,1.0649,1.062,1.0608,1.0617,1.056,1.0579,1.0576,1.0575,1.0556,1.055,1.0544,1.0618,1.0619,1.0619,0,0,1.07,1.0696,1.0675,1.0668,1.0658,1.0658,1.0653,1.0646,1.0644,1.062,1.0629,1.0614,1.0589,1.058,1.0573,1.0531,1.0538,1.0526,1.0502,1.0483,1.0478,1.0473,1.0456,1.045,1.0523,1.0523,1.0523,0,1.0682,1.0658,1.0663,1.0643,1.0635,1.0647,1.0624,1.0617,1.0604,1.0597,1.0608,1.0574,1.0569,1.0537,1.0526,1.0521,1.0514,1.0527,1.0478,1.0474,1.0469,1.0453,1.0447,1.0521,1.0521,1.0521,1.0522,0,1.0635,1.0618,1.0602,1.0587,1.0577,1.0556,1.0557,1.0546,1.055,1.0548,1.0522,1.0516,1.05,1.0493,1.0497,1.0461,1.0467,1.0478,1.0496,1.0461,1.0446,1.044,1.0519,1.0519,1.052,1.052,0,0,1.0585,1.0573,1.0566,1.0559,1.0549,1.0535,1.0514,1.0498,1.0488,1.0478,1.0459,1.0436,1.0446,1.0437,1.044,1.0424,1.0388,1.0437,1.0437,1.0426,1.0345,1.0335,1.0328,1.0393,1.0392,1.0391,1.0345,0,1.0546,1.0509,1.0512,1.0477,1.046,1.047,1.0452,1.0443,1.044,1.0425,1.0423,1.0405,1.0421,1.0415,1.0399,1.0396,1.0371,1.0399,1.0374,1.0373,1.0375,1.032,1.0311,1.0267,1.0339,1.0338,1.0337,0,1.0495,1.0482,1.0446,1.0436,1.0429,1.0412,1.0396,1.0382,1.0371,1.037,1.036,1.0365,1.0343,1.0362,1.033,1.0349,1.0339,1.0336,1.0334,1.033,1.0352,1.0313,1.0254,1.0246,1.0328,1.0329,1.033,0,1.046,1.0434,1.0408,1.0401,1.039,1.0377,1.0372,1.0362,1.0351,1.0338,1.033,1.0315,1.0305,1.0292,1.0293,1.0307,1.0259,1.028,1.0256,1.0256,1.0245,1.0245,1.018,1.0241,1.0241,1.0242,1.0242,0,1.0415,1.0391,1.0391,1.0375,1.0348,1.0351,1.0325,1.0321,1.0311,1.0294,1.0302,1.0285,1.0287,1.027,1.027,1.0242,1.0238,1.0236,1.0236,1.0234,1.0234,1.0226,1.0229,1.024,1.024,1.0241,1.0241,0,1.037,1.037,1.0341,1.0332,1.0329,1.031,1.0301,1.0285,1.0283,1.026,1.0255,1.0252,1.0231,1.0231,1.0208,1.0208,1.0173,1.0177,1.0176,1.0176,1.0152,1.0153,1.0079,1.0068,1.0138,1.0137,1.0137,0,1.0341,1.0323,1.0311,1.0299,1.0293,1.0275,1.0263,1.0266,1.0253,1.0239,1.0224,1.0204,1.0189,1.0155,1.015,1.0132,1.0135,1.011,1.0132,1.013,1.0132,1.0132,1.0129,1.0105,1.0104,1.0104,1.0103,0,1.0287,1.0287,1.0271,1.0254,1.024,1.0227,1.0215,1.0205,1.0205,1.0191,1.017,1.0158,1.0133,1.0113,1.0095,1.0088,1.0095,1.0096,1.0089,1.0086,1.0086,1.0083,1.0162,1.0098,1.0098,1.0099,1.0099,1.0099,1.0248,1.0232,1.022,1.0201,1.0192,1.0179,1.0163,1.0158,1.0141,1.0121,1.0123,1.0099,1.0087,1.0063,1.0055,1.0036,1.0044,1.0035,1.0032,1.0029,1.0026,1.009,1.0033,1.0033,1.0033,1.0033,1.0033,0,1.0193,1.0186,1.0168,1.015,1.0135,1.0143,1.0129,1.0115,1.0094,1.0082,1.0066,1.004,1.002,1.0013,0.9993,0.9979,0.9981,0.9973,0.9973,0.9971,1.0021,1.0027,0.9971,0.9971,0.9971,0.9971,0.9971,0.9971,1.0163,1.0134,1.0133,1.0099,1.0092,1.0068,1.0059,1.0047,1.0037,1.0009,0.9992,0.9987,0.9976,0.9955,0.9937,0.9935,0.9926,0.9917,0.9916,0.9962,0.9968,0.9974,0.998,0.9915,0.9915,0.9868,0.9867,0.9867]}]]